Location: Newark
(21.1200°N, 73.4000°E)
Time: 03:22:44
(UTC+00:00)

Courier 1B Rocket - Pass Details

Date: 24 January 2020
Orbit: 920 x 1202 km, 28.2° (Epoch: 16 February)

Event Time Altitude Azimuth Distance (km) Brightness Sun altitude
Rises 02:39:49 0° 199° (SSW) 4,080 8.3 10.8°
Reaches altitude 10° 02:44:38 10° 174° (S) 3,093 8.2 11.8°
Maximum altitude 02:47:56 13° 148° (SSE) 2,831 8.6 12.5°
Drops below altitude 10° 02:51:10 10° 122° (ESE) 3,034 10.5 13.2°
Sets 02:55:46 0° 97° (E) 3,936 9.6 14.1°
